Flag for Mexico Weather past 2 weeks in Puerto Vallarta, Jalisco, Mexico

Now
72 °F

Broken clouds.


Feels Like: 71 °F
Forecast: 67 / 80 °F
Wind: No wind

Location: Puerto Vallarta / Lic

Current Time: Dec 18, 2014 at 12:55:50 PM

Latest Report: Dec 18, 2014 at 9:47 AM


Visibility: 15 mi

Pressure: 30.01 "Hg

Humidity: 83%

Dew point: 66 °F

Location of Puerto VallartaLocation

Historic Weather in Puerto Vallarta — Graph

°F

Puerto Vallarta temperature yesterday

Maximum temperature yesterday: 81 °F (at 11:48 AM)
Minimum temperature yesterday: 72 °F (at 12:45 AM)
Average temperature yesterday: 75 °F

Past Weeks' High & Low Weather Summary

 TemperatureHumidityPressure
High84 °F (Dec 3, 12:47 PM)100% (Dec 7, 11:45 PM)30.11 "Hg (Dec 7, 11:45 PM)
Low63 °F (Dec 4, 6:47 AM)45% (Dec 3, 12:47 PM)29.77 "Hg (Dec 12, 6:45 PM)
Average74 °F82%29.94 "Hg
* Reported Dec 3 9:45 AM — Dec 18 9:47 AM, Puerto Vallarta, Weather by CustomWeather, © 2014

Note: Actual official high and low records may vary slightly from our data, if they occured in-between our weather recording intervals... More about our weather records

Advertising

Puerto Vallarta weather history for previous 24 hours

 ConditionsComfort  
Time TempWeatherWind HumidityBarometerVisibility
9:47 AM
Dec 18
72 °FBroken clouds.No wind83%30.01 "Hg15 mi
8:45 AM70 °FMostly cloudy.5 mph88%29.96 "Hg15 mi
7:47 AM64 °FBroken clouds.No wind100%29.97 "Hg10 mi
6:51 AM66 °FPassing clouds.No wind94%29.94 "Hg10 mi
5:46 AM66 °FPassing clouds.5 mph94%29.92 "Hg10 mi
4:50 AM68 °FOvercast.No wind94%29.93 "Hg10 mi
3:45 AM68 °FMostly cloudy.6 mph94%29.93 "Hg10 mi
2:46 AM68 °FMostly cloudy.5 mph94%29.95 "Hg10 mi
1:47 AM68 °FMostly cloudy.3 mph88%29.98 "Hg10 mi
11:49 PM
Dec 17
73 °FMostly cloudy.6 mph78%30.01 "Hg10 mi
10:46 PM75 °FOvercast.3 mph74%30.02 "Hg10 mi
9:44 PM73 °FMostly cloudy.5 mph78%30.01 "Hg10 mi
8:49 PM73 °FMostly cloudy.No wind83%29.99 "Hg10 mi
7:50 PM75 °FMostly cloudy.5 mph74%29.98 "Hg10 mi
6:49 PM75 °FMostly cloudy.3 mph78%29.97 "Hg10 mi
4:49 PM79 °FMostly cloudy.5 mph70%29.96 "Hg12 mi
2:49 PM79 °FCloudy.5 mph70%29.95 "Hg12 mi
1:45 PM79 °FBroken clouds.9 mph70%29.98 "Hg12 mi
12:48 PM81 °FPartly sunny.6 mph66%30.02 "Hg12 mi
Weather by CustomWeather, © 2014

See weather overviewHow to use our weather pages